Location: Bletchingley
(51.2333°N, 0.1000°W)
Time: 16:03:24
(UTC+00:00)

NOSS 2-2 (D) - Pass Details

Date: 18 September 2020
Orbit: 469 x 1739 km, 63.3° (Epoch: 23 October)

Event Time Altitude Azimuth Distance (km) Brightness Sun altitude
Rises 19:20:20 0° 203° (SSW) 2,502 6.7 -12.1°
Reaches altitude 10° 19:22:26 10° 195° (SSW) 1,629 5.7 -12.4°
Maximum altitude 19:25:44 40° 125° (SE) 746 3.5 -12.9°
Drops below altitude 10° 19:29:26 10° 55° (NE) 1,833 5.6 -13.5°
Sets 19:31:57 0° 48° (NE) 2,870 6.7 -13.8°
